Location: Knowlton
(51.2333°N, 1.2667°E)
Time: 03:50:32
(UTC+00:00)

M-CUBED/EXP-1 PRIME - Visible Passes

Search period start: 29 November 2021 00:00
Search period end: 09 December 2021 00:00
Orbit: 427 x 653 km, 101.7° (Epoch: 28 November)

Date Brightness Start Highest point End Pass type
(mag) Time Alt. Az. Time Alt. Az. Time Alt. Az.
29 Nov ? 05:44:27 10° NE 05:47:27 17° E 05:50:25 10° SE visible
29 Nov ? 16:31:39 10° SE 16:35:26 41° ENE 16:39:29 10° N visible
29 Nov ? 18:06:18 10° SSW 18:09:40 26° W 18:13:14 10° NW visible
30 Nov ? 05:37:25 10° ENE 05:39:52 14° E 05:42:15 10° SE visible
30 Nov ? 16:24:19 10° SE 16:28:01 34° ENE 16:31:56 10° N visible
30 Nov ? 17:58:28 10° SSW 18:02:05 32° W 18:05:56 10° NW visible
01 Dec ? 05:30:43 10° ENE 05:32:14 11° E 05:33:44 10° ESE visible
01 Dec ? 17:50:43 10° S 17:54:31 39° WSW 17:58:35 10° NNW visible
02 Dec ? 06:55:00 10° NNE 06:59:31 63° ESE 07:03:54 10° S visible
02 Dec ? 17:43:00 10° S 17:46:57 49° WSW 17:51:11 10° NNW visible
03 Dec ? 06:47:33 10° NNE 06:51:59 52° ESE 06:56:17 10° S visible
03 Dec ? 17:35:21 10° S 17:39:25 61° WSW 17:43:45 10° NNW visible
04 Dec ? 06:40:08 10° NNE 06:44:27 42° ESE 06:48:36 10° S visible
04 Dec ? 17:27:44 10° SSE 17:31:53 76° WSW 17:36:18 10° NNW visible
04 Dec ? 19:06:16 10° W 19:06:46 10° W 19:07:16 10° W visible
05 Dec ? 06:32:44 10° NE 06:36:52 34° ESE 06:40:51 10° SSE visible
05 Dec ? 17:20:10 10° SSE 17:24:21 88° ENE 17:28:48 10° NNW visible
05 Dec ? 18:57:08 10° WSW 18:59:05 13° W 19:01:05 10° WNW visible
06 Dec ? 06:25:22 10° NE 06:29:16 28° E 06:33:02 10° SSE visible
06 Dec ? 17:12:38 10° SSE 17:16:50 73° ENE 17:21:16 10° NNW visible
06 Dec ? 18:48:47 10° SW 18:51:25 16° W 18:54:07 10° NW visible
07 Dec ? 06:18:02 10° NE 06:21:39 23° E 06:25:07 10° SSE visible
07 Dec ? 17:05:09 10° SE 17:09:19 60° ENE 17:13:43 10° NNW visible
07 Dec ? 18:40:39 10° SW 18:43:45 20° W 18:46:59 10° NW visible
08 Dec ? 06:10:47 10° NE 06:14:00 19° E 06:17:06 10° SE visible
08 Dec ? 16:57:41 10° SE 17:01:49 49° ENE 17:06:08 10° NNW visible
08 Dec ? 18:32:38 10° SSW 18:36:06 24° W 18:39:43 10° NW visible
